Powrót do katalogu

RADIO 6

AktywnyKrótkofalarstwoPO
NORAD 13002·PAYLOAD·🇷🇺 Russia

Wystrzelony Dec 17, 1981 z Plesetsk Cosmodrome

Loading…

Następne Przeloty (najbliższe 24 godziny)

TLE

ŚwieżeSource: Space-Track

Epoka: Sep 14, 2026, 11:06 UTC

1 13002U 81120F   26257.46284123  .00000026  00000-0  17616-3 0  9992
2 13002  82.9543 250.2028 0050977 221.3684 307.8112 12.13847945982298

Śledź RADIO 6 w czasie rzeczywistym z AllMySat

Download on the App Store